Location: Fours
(44.3167°N, 6.7000°E)
Time: 21:30:48
(UTC+00:00)

Meteor 1-16 Rocket - Pass Details

Date: 16 October 2021
Orbit: 789 x 908 km, 81.2° (Epoch: 29 November)

Event Time Altitude Azimuth Distance (km) Brightness Sun altitude
Rises 17:56:25 0° 182° (S) 3,521 7.5 -13.1°
Reaches altitude 10° 17:58:53 10° 180° (S) 2,583 6.7 -13.6°
Maximum altitude 18:04:46 73° 97° (E) 946 4.2 -14.6°
Drops below altitude 10° 18:10:36 10° 14° (NNE) 2,563 6.6 -15.7°
Sets 18:13:02 0° 13° (NNE) 3,492 7.3 -16.1°
